When you browse on this site, cookies collect data to enhance your experience and personalize the content and advertising you see.
Visit our Privacy Policy to learn more. By continuing to use the site, you agree to this use of cookies and data.
  • In Portugal
  • List of Countries
  • For 7 days
  • Water Temperature
  • Weather Map
  • Weather Widgets
  • user-avatar
    Login

    Hourly Weather Gelmec

    Today, 23 September, Monday

    Time Temperature Precipitation Wind Pressure Humidity
    00:00 +3°C° 0 mm 2 mps 619 mmHg 56%
    01:00 +4°C° 0 mm 2 mps 619 mmHg 56%
    02:00 +5°C° 0 mm 1 mps 619 mmHg 57%
    03:00 +4°C° 0 mm 2 mps 619 mmHg 57%
    04:00 +5°C° 0 mm 1 mps 619 mmHg 56%
    05:00 +5°C° 0 mm 1 mps 619 mmHg 55%
    06:00 +5°C° 0 mm 1 mps 619 mmHg 53%
    07:00 +8°C° 0 mm 1 mps 620 mmHg 51%
    08:00 +9°C° 0 mm 2 mps 620 mmHg 50%
    09:00 +12°C° 0 mm 2 mps 622 mmHg 45%
    10:00 +13°C° 0 mm 2 mps 622 mmHg 45%
    11:00 +14°C° 0 mm 2 mps 622 mmHg 45%
    12:00 +14°C° 0 mm 3 mps 622 mmHg 44%
    13:00 +14°C° 0 mm 3 mps 621 mmHg 44%
    14:00 +15°C° 0 mm 2 mps 621 mmHg 44%
    15:00 +15°C° 0 mm 2 mps 621 mmHg 44%
    16:00 +12°C° 0 mm 2 mps 620 mmHg 53%
    17:00 +10°C° 0 mm 1 mps 619 mmHg 62%
    18:00 +7°C° 0 mm 1 mps 618 mmHg 71%
    19:00 +7°C° 0 mm 1 mps 618 mmHg 66%
    20:00 +7°C° 0 mm 1 mps 619 mmHg 62%
    21:00 +7°C° 0 mm 1 mps 619 mmHg 58%
    22:00 +7°C° 0 mm 1 mps 619 mmHg 57%
    23:00 +6°C° 0 mm 1 mps 618 mmHg 56%

    Tomorrow, 24 September, Tuesday

    Time Temperature Precipitation Wind Pressure Humidity
    00:00 +6°C° 0 mm 1 mps 618 mmHg 56%
    01:00 +6°C° 0 mm 1 mps 618 mmHg 56%
    02:00 +6°C° 0 mm 1 mps 618 mmHg 57%
    03:00 +6°C° 0 mm 1 mps 618 mmHg 57%
    04:00 +6°C° 0 mm 1 mps 618 mmHg 58%
    05:00 +7°C° 0 mm 1 mps 618 mmHg 59%
    06:00 +7°C° 0 mm 1 mps 618 mmHg 60%
    07:00 +9°C° 0 mm 1 mps 619 mmHg 57%
    08:00 +10°C° 0 mm 2 mps 621 mmHg 53%
    09:00 +14°C° 0 mm 2 mps 622 mmHg 49%
    10:00 +14°C° 0 mm 2 mps 622 mmHg 48%
    11:00 +14°C° 0 mm 3 mps 622 mmHg 47%
    12:00 +16°C° 0 mm 3 mps 621 mmHg 46%
    13:00 +16°C° 0 mm 3 mps 621 mmHg 47%
    14:00 +16°C° 0 mm 3 mps 621 mmHg 48%
    15:00 +16°C° 0 mm 3 mps 621 mmHg 49%
    16:00 +13°C° 0 mm 2 mps 620 mmHg 58%
    17:00 +10°C° 0 mm 2 mps 619 mmHg 68%
    18:00 +9°C° 0 mm 1 mps 618 mmHg 78%
    19:00 +9°C° 0 mm 1 mps 618 mmHg 74%
    20:00 +8°C° 0 mm 1 mps 618 mmHg 71%
    21:00 +8°C° 0 mm 1 mps 618 mmHg 68%
    22:00 +8°C° 0 mm 1 mps 618 mmHg 69%
    23:00 +8°C° 0 mm 1 mps 618 mmHg 71%

    Day after tomorrow, 25 September, Wednesday

    Time Temperature Precipitation Wind Pressure Humidity
    00:00 +7°C° 0 mm 2 mps 617 mmHg 72%
    01:00 +7°C° 0 mm 2 mps 617 mmHg 71%
    02:00 +7°C° 0 mm 2 mps 617 mmHg 70%
    03:00 +7°C° 0 mm 2 mps 617 mmHg 69%
    04:00 +7°C° 0 mm 2 mps 617 mmHg 68%
    05:00 +8°C° 0 mm 1 mps 617 mmHg 66%
    06:00 +8°C° 0 mm 1 mps 617 mmHg 64%
    07:00 +10°C° 0 mm 2 mps 618 mmHg 58%
    08:00 +13°C° 0 mm 2 mps 619 mmHg 52%
    09:00 +16°C° 0 mm 2 mps 621 mmHg 45%
    10:00 +17°C° 0 mm 3 mps 621 mmHg 45%
    11:00 +17°C° 0 mm 3 mps 621 mmHg 44%
    12:00 +18°C° 0 mm 3 mps 621 mmHg 43%
    13:00 +18°C° 0 mm 3 mps 621 mmHg 43%
    14:00 +18°C° 0 mm 3 mps 621 mmHg 43%
    15:00 +18°C° 0 mm 3 mps 621 mmHg 43%
    16:00 +16°C° 0 mm 2 mps 620 mmHg 51%
    17:00 +14°C° 0 mm 2 mps 619 mmHg 59%
    18:00 +12°C° 0 mm 1 mps 618 mmHg 67%
    19:00 +11°C° 0 mm 1 mps 619 mmHg 66%
    20:00 +11°C° 0 mm 1 mps 619 mmHg 64%
    21:00 +10°C° 0 mm 1 mps 619 mmHg 63%
    22:00 +10°C° 0 mm 1 mps 619 mmHg 64%
    23:00 +10°C° 0 mm 1 mps 619 mmHg 66%

    26 September, Thursday

    Time Temperature Precipitation Wind Pressure Humidity
    00:00 +10°C° 0 mm 1 mps 619 mmHg 67%
    01:00 +10°C° 0 mm 1 mps 618 mmHg 67%
    02:00 +9°C° 0 mm 1 mps 618 mmHg 68%
    03:00 +9°C° 0 mm 1 mps 618 mmHg 68%
    04:00 +9°C° 0 mm 1 mps 618 mmHg 69%
    05:00 +9°C° 0 mm 1 mps 618 mmHg 69%
    06:00 +9°C° 0 mm 1 mps 618 mmHg 70%
    07:00 +10°C° 0 mm 2 mps 619 mmHg 65%
    08:00 +14°C° 0 mm 2 mps 620 mmHg 60%
    09:00 +16°C° 0 mm 3 mps 621 mmHg 55%
    10:00 +17°C° 0 mm 3 mps 621 mmHg 53%
    11:00 +18°C° 0 mm 4 mps 621 mmHg 50%
    12:00 +19°C° 0 mm 4 mps 621 mmHg 47%
    13:00 +19°C° 0 mm 4 mps 621 mmHg 46%
    14:00 +18°C° 0 mm 4 mps 621 mmHg 46%
    15:00 +18°C° 0 mm 3 mps 621 mmHg 45%
    16:00 +17°C° 0 mm 3 mps 620 mmHg 53%
    17:00 +15°C° 0 mm 2 mps 619 mmHg 61%
    18:00 +13°C° 0 mm 1 mps 619 mmHg 69%
    19:00 +12°C° 0 mm 1 mps 619 mmHg 70%
    20:00 +12°C° 0 mm 1 mps 619 mmHg 72%
    21:00 +11°C° 0 mm 1 mps 619 mmHg 74%
    22:00 +10°C° 0 mm 2 mps 619 mmHg 77%
    23:00 +10°C° 0 mm 2 mps 618 mmHg 80%

    27 September, Friday

    Time Temperature Precipitation Wind Pressure Humidity
    00:00 +10°C° 0 mm 2 mps 618 mmHg 83%
    01:00 +9°C° 0 mm 2 mps 618 mmHg 83%
    02:00 +10°C° 0 mm 1 mps 618 mmHg 82%
    03:00 +10°C° 0 mm 1 mps 618 mmHg 82%
    04:00 +10°C° 0 mm 1 mps 618 mmHg 82%
    05:00 +10°C° 0 mm 1 mps 618 mmHg 81%
    06:00 +10°C° 0 mm 1 mps 618 mmHg 81%
    07:00 +12°C° 0 mm 2 mps 619 mmHg 76%
    08:00 +14°C° 0 mm 2 mps 620 mmHg 70%
    09:00 +17°C° 0 mm 2 mps 621 mmHg 65%
    10:00 +17°C° 0 mm 3 mps 621 mmHg 61%
    11:00 +18°C° 0 mm 3 mps 621 mmHg 58%
    12:00 +19°C° 0 mm 3 mps 621 mmHg 55%
    13:00 +19°C° 0 mm 3 mps 621 mmHg 53%
    14:00 +19°C° 0 mm 3 mps 620 mmHg 51%
    15:00 +19°C° 0 mm 3 mps 620 mmHg 50%
    16:00 +17°C° 0 mm 3 mps 620 mmHg 56%
    17:00 +15°C° 0 mm 2 mps 619 mmHg 63%
    18:00 +14°C° 0 mm 1 mps 618 mmHg 70%
    19:00 +13°C° 0 mm 1 mps 618 mmHg 71%
    20:00 +13°C° 0 mm 1 mps 618 mmHg 72%
    21:00 +13°C° 0 mm 1 mps 618 mmHg 73%
    22:00 +13°C° 0 mm 1 mps 618 mmHg 76%
    23:00 +13°C° 0 mm 1 mps 618 mmHg 79%

    28 September, Saturday

    Time Temperature Precipitation Wind Pressure Humidity
    00:00 +13°C° 0 mm 1 mps 618 mmHg 82%
    01:00 +12°C° 0 mm 1 mps 618 mmHg 83%
    02:00 +11°C° 0 mm 1 mps 617 mmHg 84%
    03:00 +11°C° 0 mm 1 mps 617 mmHg 85%
    04:00 +11°C° 0 mm 1 mps 617 mmHg 85%
    05:00 +11°C° 0 mm 1 mps 616 mmHg 84%
    06:00 +11°C° 0 mm 1 mps 616 mmHg 84%
    07:00 +13°C° 0 mm 2 mps 617 mmHg 76%
    08:00 +15°C° 0 mm 2 mps 618 mmHg 68%
    09:00 +17°C° 0 mm 3 mps 618 mmHg 60%
    10:00 +16°C° 0.5 mm 3 mps 618 mmHg 68%
    11:00 +14°C° 0.5 mm 3 mps 618 mmHg 76%
    12:00 +13°C° 0.5 mm 3 mps 618 mmHg 83%
    13:00 +13°C° 1 mm 3 mps 618 mmHg 80%
    14:00 +13°C° 1 mm 3 mps 618 mmHg 77%
    15:00 +12°C° 1 mm 3 mps 618 mmHg 73%
    16:00 +12°C° 0 mm 2 mps 618 mmHg 77%
    17:00 +10°C° 0 mm 2 mps 618 mmHg 80%
    18:00 +10°C° 0 mm 1 mps 618 mmHg 83%
    19:00 +10°C° 0 mm 1 mps 618 mmHg 84%
    20:00 +8°C° 0 mm 2 mps 618 mmHg 85%
    21:00 +8°C° 0 mm 2 mps 618 mmHg 86%
    22:00 +8°C° 0 mm 2 mps 618 mmHg 86%
    23:00 +8°C° 0 mm 1 mps 618 mmHg 85%
    Show more